Location: Elmley Island
(51.3833°N, 0.8000°E)
Time: 15:08:15
(UTC+00:00)

Daily predictions for brighter satellites

Satellite Brightness Start Highest point End
(mag) Time Altitude Azimuth Time Altitude Azimuth Time Altitude Azimuth
SL-16 R/B 4.3 16:21:56 10° NW 16:23:56 12° NNW 16:25:57 10° N
NOAA 11 4.2 16:19:46 10° SSE 16:25:11 79° ENE 16:30:39 10° NNW
USA 305 3.0 16:23:17 10° WNW 16:27:30 62° N 16:31:44 10° E
CZ-2C R/B 4.3 16:27:26 10° ENE 16:29:08 11° E 16:30:50 10° ESE
Cosmos 1842 Rocket 3.7 16:25:02 10° S 16:29:31 85° W 16:34:03 10° N
Cosmos 2219 Rocket 4.0 16:27:03 10° N 16:29:43 13° NNE 16:32:23 10° NE
SL-24 R/B - RUBIN 2 3.7 16:25:20 10° NW 16:29:57 82° SW 16:34:18 10° SE
Meteor 1-25 Rocket 4.2 16:24:30 10° N 16:30:07 74° ENE 16:35:44 10° SSE
Nadezhda 4 Rocket 4.2 16:25:00 10° N 16:31:23 85° W 16:37:43 10° S
Cosmos 1500 3.6 16:30:04 10° N 16:33:35 38° ENE 16:37:05 10° SE
H-2A R/B 4.2 16:30:18 10° SSW 16:33:45 39° W 16:37:13 10° NNW
Cosmos 1606 3.6 16:30:17 10° SSW 16:33:58 49° WNW 16:37:42 10° N
CZ-4B R/B 2.8 16:30:15 10° SSE 16:34:04 57° ENE 16:37:45 10° N
Cosmos 1464 Rocket 4.3 16:27:56 10° SSW 16:34:19 79° W 16:40:44 10° N
Cosmos 44 Rocket 3.5 16:29:43 10° NW 16:34:35 50° NE 16:39:16 10° ESE
COSMOS 2406 3.3 16:35:48 10° SSW 16:41:28 64° ESE 16:47:08 10° NE
Cosmos 468 Rocket 4.0 16:37:31 10° SSW 16:42:42 89° ESE 16:47:59 10° NNE
Meteor 1-31 Rocket 4.4 16:42:23 10° SSW 16:45:58 39° W 16:49:37 10° NNW
Cosmos 1428 Rocket 4.4 16:40:30 10° N 16:46:38 70° ENE 16:52:48 10° SSE
Cosmos 1092 Rocket 4.0 16:45:22 10° N 16:51:46 84° ENE 16:58:07 10° S
CZ-4B R/B 3.8 16:50:23 10° ESE 16:55:04 32° ENE 16:59:42 10° N
Meteor 2-21 4.4 16:49:17 10° N 16:55:22 72° ENE 17:01:24 10° SSE
USA 267 3.9 16:50:26 11° ENE 16:56:25 42° SE 17:02:34 10° SSW
CZ-2D R/B 3.9 16:53:41 10° SE 16:57:07 33° ENE 17:00:34 10° N
ATLAS CENTAUR R/B 3.0 16:48:09 10° SW 16:58:01 72° SSE 17:01:31 15° ENE
Cosmos 1939 Rocket 2.8 16:55:40 10° SSE 16:59:43 72° ENE 17:03:46 10° N
USA 306 2.9 16:55:37 10° WNW 16:59:52 71° NNE 17:03:51 12° E
Cosmos 1633 Rocket 3.4 16:56:21 10° N 17:00:32 42° ENE 17:04:42 10° SE
COSMO-SKYMED 1 4.1 16:59:10 14° ENE 17:00:47 17° E 17:03:34 10° SE
Cosmos 1151 Rocket 3.7 16:58:22 10° SSE 17:02:19 35° E 17:06:19 10° NNE
Cosmos 1666 2.9 16:58:45 10° N 17:02:20 44° ENE 17:05:54 10° SSE
Cosmos 2360 Rocket 3.2 16:59:19 10° NNW 17:04:04 26° NE 17:08:17 12° E
Cosmos 1782 2.8 17:00:23 10° S 17:04:19 63° E 17:08:17 10° NNE
ISS -1.1 17:02:29 10° W 17:05:08 21° SW 17:07:46 10° SSE
SeaSat 1 3.6 17:03:34 10° NNE 17:08:08 38° NW 17:12:39 10° WSW
SL-08 R/B 3.5 17:03:53 10° NNE 17:08:35 73° WNW 17:13:12 10° SSW
Cosmos 1763 Rocket 4.0 17:04:05 10° SW 17:09:06 56° WNW 17:14:11 10° NNE
PAYLOAD B 4.3 17:04:25 10° SE 17:09:52 55° ENE 17:15:20 10° N
Cosmos 1818 3.5 17:04:38 10° NW 17:10:10 82° NE 17:15:38 10° SE
YAOGAN 1 4.1 17:11:21 16° NE 17:11:21 16° NE 17:13:34 10° NNE
ATLAS 5 CENTAUR R/B 2.6 17:07:53 10° NW 17:17:11 59° NNE 17:19:38 17° ESE
Cosmos 1536 4.4 17:14:36 10° NNE 17:16:30 18° NE 17:16:30 18° NE
Cosmos 2279 Rocket 4.1 17:12:26 10° SSE 17:18:26 54° E 17:24:27 10° NNE
Cosmos 841 Rocket 3.4 17:14:07 10° SSW 17:19:17 88° ESE 17:24:28 10° NNE
Cosmos 2266 Rocket 4.4 17:13:24 10° N 17:19:27 42° ENE 17:25:29 10° SE
ERBS 3.3 17:16:47 10° WNW 17:19:38 29° N 17:20:46 23° NE
USA 307 2.8 17:16:12 10° WNW 17:20:28 78° NNE 17:23:32 18° ESE
CZ-4C R/B 3.3 17:13:58 10° NW 17:21:01 71° SW 17:29:20 10° SSE
Lacrosse 5 rocket 1.7 17:19:40 10° WNW 17:23:31 62° SW 17:27:34 10° SE
NOSS 3-4 (A) 4.4 17:18:42 10° NW 17:24:39 36° NNE 17:28:52 20° ENE
NOSS 3-4 (C) 4.4 17:18:48 10° NW 17:24:44 36° NNE 17:28:56 20° ENE
SL-08 RB Rocket 4.5 17:22:31 10° ESE 17:26:28 29° ENE 17:30:24 10° N
ATLAS 2AS CENTAUR R/B 3.8 17:20:20 10° WNW 17:27:04 32° N 17:31:18 19° NE
Cosmos 2322 Rocket 2.4 17:21:40 10° NNW 17:27:12 47° NE 17:32:43 10° SE
Cosmos 1933 Rocket 4.2 17:23:40 10° N 17:27:34 31° ENE 17:31:26 10° SE
COSMOS 2428 4.1 17:23:39 10° NNW 17:27:38 19° NNE 17:28:43 18° NE
Cosmos 2208 Rocket 4.3 17:23:35 10° S 17:28:48 50° ESE 17:32:51 17° NE
Cosmos 2150 Rocket 4.0 17:24:02 10° NNW 17:29:11 61° ENE 17:34:22 10° SE
Cosmos 1666 Rocket 3.6 17:25:41 10° N 17:30:09 87° W 17:34:33 10° S
Cosmos 1980 Rocket 3.3 17:24:57 10° NW 17:30:23 48° WSW 17:35:44 10° S
AQUARIUS 4.4 17:26:36 10° S 17:31:05 75° WSW 17:35:36 10° NNW
USA 234 3.4 17:25:25 10° SE 17:31:58 80° SSW 17:38:32 10° WNW
Cosmos 1328 Rocket 3.7 17:28:03 10° S 17:32:20 50° E 17:36:01 14° NNE
Cosmos 1470 Rocket 3.7 17:29:21 10° N 17:33:45 54° ENE 17:38:08 10° SSE
Cosmos 1544 3.4 17:30:26 10° N 17:33:52 39° ENE 17:37:17 10° SE
Cosmos 1125 Rocket 3.5 17:30:11 10° NNW 17:35:25 64° ENE 17:40:39 10° SE
CORIOLIS 4.5 17:31:14 10° S 17:36:38 70° WSW 17:42:06 10° NNW
X-37B 3.1 17:37:02 10° SSE 17:37:33 10° SSE 17:37:49 10° SSE
Cosmos 1812 2.6 17:34:16 10° S 17:38:07 88° E 17:41:44 12° N
PSLV R/B 3.7 17:35:26 10° SSE 17:39:08 81° WSW 17:42:57 10° NNW
H-2A R/B 1.9 17:34:51 10° SSE 17:39:57 82° ENE 17:44:58 10° NNW
Meteor 1-11 Rocket 3.8 17:35:16 10° N 17:40:46 51° ENE 17:46:22 10° SSE
Cosmos 1634 Rocket 4.2 17:34:33 10° SSW 17:40:53 75° WNW 17:47:14 10° N
Okean O Rocket 1.8 17:37:27 10° SE 17:41:45 50° ENE 17:46:05 10° N
Meteor 2-8 Rocket 4.4 17:36:17 10° S 17:42:20 61° E 17:48:25 10° NNE
Meteor 1-10 Rocket 4.5 17:37:01 10° SSE 17:42:27 46° E 17:47:11 13° NNE
ATLAS CENTAUR R/B 3.6 17:39:50 10° NW 17:42:41 16° N 17:44:13 14° NNE
USA 308 2.8 17:38:54 10° WNW 17:43:10 89° SSW 17:45:21 28° ESE
GEOS 3 Rocket 4.2 17:41:55 27° ENE 17:44:01 38° NNE 17:48:47 10° NW
SL-16 R/B 2.1 17:42:12 10° NNW 17:47:56 79° ENE 17:53:37 10° SE
Cosmos 2237 Rocket 4.0 17:46:00 10° N 17:48:55 14° NNE 17:49:04 14° NNE
SKYMED 2 3.9 17:47:47 32° NE 17:49:15 44° E 17:53:24 10° S
Cosmos 540 Rocket 4.4 17:46:27 10° SW 17:51:19 44° WNW 17:56:07 11° NNE
ARGOS 3.1 17:46:30 10° SSE 17:51:51 67° ENE 17:57:14 10° N
Cosmos 2082 Rocket 2.5 17:46:49 10° SW 17:52:29 69° WNW 17:56:57 17° NNE
H-2A R/B 4.5 17:56:25 14° N 17:56:25 14° N 17:57:10 10° N
SMAP 4.5 17:51:06 10° SSW 17:55:28 40° W 17:59:52 10° NNW
CZ-4 R/B 3.6 17:58:56 13° N 17:58:56 13° N 17:59:25 10° N
deb Chang Zheng 4 3.4 17:52:59 10° SSE 17:57:17 79° ENE 18:01:38 10° NNW
COSMOS 2455 3.3 17:54:49 10° SW 18:00:47 60° NW 18:04:54 21° NNE
Cosmos 1833 Rocket 4.1 18:01:04 10° WSW 18:06:07 33° NW 18:10:35 13° NNE
Feng Yun 1-1 Rocket 4.3 18:00:59 10° SSE 18:06:47 61° ENE 18:12:31 10° N
USA 305 3.1 18:03:14 10° WNW 18:07:28 66° SSW 18:08:52 39° SE
Cosmos 2333 Rocket 2.7 18:02:22 10° NNW 18:07:43 37° NE 18:08:05 37° NE
Cosmos 1356 Rocket 3.3 18:04:14 10° N 18:08:27 82° ENE 18:12:43 10° SSE
CZ-2C R/B 2.4 18:06:51 20° NNE 18:10:26 71° ESE 18:15:35 10° S
SL-16 R/B 4.3 18:09:01 10° N 18:10:55 11° NNE 18:11:02 11° NNE
Cosmos 2219 Rocket 2.9 18:10:21 10° NNW 18:15:05 34° NE 18:15:05 34° NE
Cosmos 1655 Rocket 4.1 18:09:51 10° N 18:16:18 84° W 18:22:39 10° S
Aureole 3 Rocket 3.7 18:14:04 10° S 18:18:46 57° E 18:25:24 10° NNE
Cosmos 1515 Rocket 3.4 18:15:01 10° S 18:19:27 81° E 18:20:26 53° NNE
Cosmos 921 Rocket 3.0 18:17:40 10° SSW 18:21:54 79° WNW 18:22:47 55° N
Spot 2 4.3 18:23:28 25° SSE 18:26:28 70° ENE 18:31:30 10° NNW
Cosmos 371 Rocket 3.5 18:29:54 10° NNW 18:33:50 54° N 18:33:50 54° N
CZ-4B R/B 4.0 18:30:15 10° S 18:35:27 49° W 18:40:38 10° NNW
Cosmos 2333 4.3 18:30:00 10° NNW 18:35:33 57° NE 18:35:33 57° NE
COSMO-SKYMED 1 2.8 18:36:23 49° NNW 18:37:23 66° WNW 18:41:41 10° SSW
USA 306 3.7 18:35:35 10° WNW 18:39:39 45° SSW 18:39:52 45° SSW
USA 267 3.2 18:37:47 48° NE 18:39:49 83° NNW 18:46:23 10° WSW
Landsat 5 4.5 18:41:37 36° SSW 18:41:37 36° SSW 18:44:00 10° SSW
Meteor 2-15 Rocket 4.5 18:38:05 10° SSW 18:44:12 77° WNW 18:50:07 11° N
Meteor 1-27 Rocket 3.5 18:39:54 10° S 18:45:25 87° E 18:46:30 60° NNE
YAOGAN 1 3.9 18:48:30 31° NNW 18:48:30 31° NNW 18:50:49 10° NNW
Cosmos 836 Rocket 4.4 18:42:57 10° SSW 18:48:15 90° WNW 18:48:20 87° NNE
Cosmos 2360 Rocket 2.2 18:43:02 10° NNW 18:48:44 81° WSW 18:50:08 53° SSE
USA 307 4.3 18:56:14 10° WNW 18:59:35 36° WSW 18:59:35 36° WSW
Lacrosse 5 rocket 4.2 19:00:07 10° W 19:02:00 13° SW 19:03:55 10° SSW
Cosmos 2322 Rocket 3.5 19:05:58 10° NW 19:11:10 38° WSW 19:16:23 10° S
COSMOS 2428 3.8 19:07:26 10° NNW 19:10:45 34° N 19:10:45 34° N
NOSS 3-4 (A) 3.7 19:09:40 10° NW 19:16:20 79° NNE 19:16:20 79° NNE
NOSS 3-4 (C) 3.7 19:09:46 10° NW 19:16:24 79° NNE 19:16:24 79° NNE
Okean O Rocket 4.0 19:14:51 10° SW 19:18:22 22° W 19:21:54 10° NW
ATLAS 2AS CENTAUR R/B 3.3 19:12:26 10° NW 19:18:44 47° N 19:18:44 47° N
Cosmos 1867 4.3 19:15:17 10° SW 19:19:10 48° SW 19:19:10 48° SW
GEOS 3 Rocket 4.3 19:23:02 52° WNW 19:23:02 52° WNW 19:27:04 10° NW
ATLAS CENTAUR R/B 4.2 19:19:31 10° NNW 19:20:20 13° NNW 19:20:20 13° NNW
ATLAS CENTAUR R/B 4.2 19:24:13 10° W 19:27:07 23° WNW 19:27:07 23° WNW
Cosmos 2237 Rocket 4.2 19:29:24 10° NNW 19:30:53 17° NNW 19:30:53 17° NNW
Cosmos 2082 Rocket 4.2 19:33:32 10° W 19:37:39 20° NNW 19:38:48 19° NNW
Cosmos 2333 Rocket 3.6 19:46:38 10° NW 19:50:07 35° WNW 19:50:07 35° WNW
Cosmos 2219 Rocket 3.9 19:54:13 10° NW 19:56:49 27° NW 19:56:49 27° NW
USA 267 4.5 20:25:08 36° WNW 20:25:08 36° WNW 20:28:57 10° W
